User: anonymous   Login
Location: Cella
(44.7333°N, 10.5667°E)
Time: 12:26:25
(UTC+00:00)
Language:

COSMOS 1867 COOLANT - Orbit

View from above orbital plane
View from above orbital plane
View from above satellite
View from above satellite

Ground track
Ground track

The orbit data is extracted from the following two-line orbital elements,

1 43324U 87060AR  21263.27969680 -.00000007  00000-0  35078-4 0  9993
2 43324  65.0075 189.8249 0022193 271.9416  87.9126 14.31608995376958
Epoch (UTC): 20 September 2021 06:42:45
Eccentricity: 0.0022193
inclination: 65.0075°
perigee height: 770 km
apogee height: 802 km
right ascension of ascending node: 189.8249°
argument of perigee: 271.9416°
revolutions per day: 14.31608995
mean anomaly at epoch: 87.9126°
orbit number at epoch: 37695

The dashed part of the orbit path shows where the satellite is in the earth's shadow,  

DLR